Location: Chaumontel
(49.1247°N, 2.4324°E)
Time: 13:03:53
(UTC+00:00)

Daily predictions for brighter satellites

Satellite Brightness Start Highest point End
(mag) Time Altitude Azimuth Time Altitude Azimuth Time Altitude Azimuth
BREEZE-M DEB (TANK) 2.9 17:17:17 10° WSW 17:20:06 52° SSE 17:25:27 10° E
Cosmos 407 Rocket 3.6 17:15:37 10° S 17:20:40 61° ESE 17:25:44 10° NNE
ATLAS CENTAUR R/B 1.8 17:17:07 10° SW 17:21:50 75° NW 17:26:23 10° NE
Cosmos 1544 Rocket 4.0 17:22:14 10° NNW 17:26:32 66° W 17:30:49 10° S
Cosmos 1726 Rocket 4.5 17:25:13 10° NNE 17:28:54 26° ENE 17:32:32 10° SE
Cosmos 1140 Rocket 3.5 17:24:10 10° SSW 17:29:21 84° ESE 17:34:32 10° NNE
ISS -2.4 17:29:12 10° WNW 17:32:24 40° SSW 17:35:34 10° SE
Cosmos 1655 Rocket 4.0 17:27:10 10° N 17:33:28 85° E 17:39:41 10° S
DMSP B5D2-2 4.2 17:29:10 10° NNE 17:34:24 59° E 17:39:35 10° S
SL-08 ROCKET BODY 4.4 17:32:23 10° N 17:38:13 59° ENE 17:43:58 10° SSE
IKONOS-2 4.5 17:35:13 10° NNE 17:39:28 68° ESE 17:43:42 10° S
Cosmos 1190 Rocket 4.1 17:35:25 10° S 17:40:36 58° ESE 17:45:49 10° NNE
Meteor PRIRODA 3.9 17:37:23 10° S 17:40:54 69° WSW 17:44:28 10° NNW
USA 290 3.4 17:39:04 10° SW 17:42:10 43° WNW 17:45:17 10° NNE
Cosmos 1633 3.8 17:40:58 10° SE 17:43:21 18° E 17:45:45 10° NE
Cosmos 1461 4.1 17:40:07 10° S 17:43:41 27° ESE 17:47:01 12° ENE
Cosmos 2266 Rocket 4.3 17:38:12 10° NNW 17:44:29 73° W 17:50:37 10° S
Cosmos 1408 2.3 17:41:38 10° S 17:45:00 70° E 17:48:26 10° NNE
Okean O Rocket 2.9 17:42:10 10° ESE 17:45:22 20° ENE 17:48:35 10° NNE
Cosmos 1844 Rocket 2.8 17:42:01 10° NNW 17:47:31 55° NE 17:52:58 10° SE
Cosmos 1328 3.7 17:45:16 10° S 17:49:15 84° E 17:53:13 10° N
Lacrosse 5 rocket 1.4 17:49:44 10° NW 17:53:10 44° NNE 17:55:52 16° E
NOAA 6 4.4 17:48:05 10° S 17:53:13 70° WSW 17:58:24 10° NNW
DELTA 2 DEB (DPAF) 4.2 17:49:41 10° NNE 17:54:06 80° WNW 17:58:28 10° SSW
Meteor 1-11 4.4 17:48:35 10° S 17:54:12 52° E 17:59:48 10° NNE
CZ-4B DEB 4.2 17:49:03 10° SSE 17:54:26 67° ENE 17:59:53 10° N
CZ-4B R/B 3.6 17:51:59 10° SE 17:56:56 40° ENE 18:02:00 10° N
SKYMED 2 3.5 17:57:36 10° NNE 18:01:58 71° ESE 18:06:18 10° S
Cosmos 1553 Rocket 4.4 17:56:32 10° SSE 18:02:06 39° E 18:07:45 10° NNE
Cosmos 1844 3.8 17:57:46 10° NNW 18:03:34 63° ENE 18:09:16 10° SE
CZ-4 R/B 2.2 18:02:15 10° SE 18:05:48 29° ENE 18:09:21 10° N
Cosmos 468 Rocket 3.9 18:01:11 10° NNW 18:06:24 77° ENE 18:11:31 10° SSE
Cosmos 2058 Rocket 3.6 18:02:25 10° N 18:06:29 35° ENE 18:10:33 10° SE
Cosmos 1892 2.5 18:03:07 10° S 18:06:50 80° E 18:10:37 10° NNE
Cosmos 2278 4.2 18:03:14 10° SW 18:08:50 60° WNW 18:14:30 10° NNE
CZ-4C R/B 3.1 18:05:39 10° NNE 18:09:31 69° ESE 18:13:09 10° S
Cosmos 2360 Rocket 2.6 18:05:40 10° S 18:10:56 42° ESE 18:15:52 12° NE
Cosmos 2219 Rocket 3.3 18:07:18 10° SSE 18:11:18 21° E 18:12:21 19° E
YAOGAN 1 2.6 18:08:21 10° SSE 18:12:33 53° ENE 18:16:47 10° N
RESURS DK-1 2.3 18:12:03 10° NNW 18:16:09 63° ENE 18:20:14 10° SE
Cosmos 1825 2.0 18:13:10 10° S 18:16:49 64° E 18:20:29 10° NNE
Cosmos 1954 Rocket 3.9 18:12:54 10° SSW 18:18:08 81° ESE 18:23:23 10° NNE
Cosmos 2278 Rocket 3.6 18:14:25 10° N 18:18:28 19° NE 18:19:41 18° NE
Cosmos 2333 Rocket 2.8 18:14:15 10° SSE 18:19:15 33° ESE 18:22:21 20° ENE
IGS 5A 4.3 18:20:49 27° E 18:21:32 28° ENE 18:25:05 10° N
MOS 1-B 4.3 18:17:03 10° SSE 18:22:47 67° ENE 18:28:33 10° NNW
Cosmos 2322 Rocket 2.1 18:17:28 10° SSW 18:23:02 74° ESE 18:28:40 10° NNE
Cosmos 1763 Rocket 3.9 18:18:29 10° NNW 18:23:38 65° WSW 18:28:41 10° S
USA 215 4.4 18:17:59 10° SSE 18:24:08 43° SW 18:30:21 10° WNW
Meteor 2-12 Rocket 4.3 18:19:11 10° N 18:25:18 81° E 18:31:22 10° SSE
Cosmos 1850 Rocket 4.4 18:25:17 10° S 18:30:01 37° ESE 18:32:18 25° NE
ATLAS 2AS CENTAUR R/B 3.3 18:24:46 10° NW 18:31:38 58° WSW 18:38:06 10° SSE
BlueWalker 3 2.6 18:28:04 10° WNW 18:31:49 44° N 18:33:03 33° NE
SL-4 R/B 1.9 18:28:34 10° WNW 18:32:03 58° N 18:33:04 40° ENE
Lacrosse 5 1.8 18:28:01 10° SW 18:33:08 80° SE 18:35:50 28° ENE
COSMOS 2428 4.4 18:30:41 10° SE 18:32:20 16° SE 18:32:20 16° SE
Cosmos 1606 Rocket 4.2 18:30:29 10° NNW 18:34:43 55° W 18:38:56 10° S
IRIDIUM 104 4.2 18:29:30 10° N 18:34:45 72° E 18:39:57 10° S
ATLAS 5 CENTAUR R/B 3.9 18:33:41 10° NNW 18:35:59 14° N 18:37:52 12° NNE
Cosmos 841 Rocket 3.4 18:31:03 10° NNW 18:36:20 68° ENE 18:41:33 10° SSE
S3M 4.3 18:31:18 10° SSE 18:37:17 44° E 18:43:16 10° NNE
Feng Yun 1-1 Rocket 4.2 18:32:07 10° SE 18:37:32 56° ENE 18:42:51 10° N
SL-16 R/B 2.5 18:32:04 10° SW 18:37:42 66° WNW 18:43:23 10° NNE
Cosmos 540 Rocket 3.6 18:32:36 10° NNW 18:37:46 76° WSW 18:42:52 10° SSE
Cosmos 1741 Rocket 4.4 18:32:53 10° S 18:37:51 42° ESE 18:40:09 27° NE
In-Cosmos 22 Rocket 4.3 18:32:23 10° S 18:38:13 89° W 18:44:05 10° NNE
Cosmos 1340 2.4 18:34:33 10° N 18:38:13 67° ENE 18:41:51 10° SSE
Cosmos 1606 4.1 18:36:45 10° N 18:38:34 23° NNE 18:38:34 23° NNE
Cosmos 2333 4.4 18:35:03 10° S 18:40:20 46° ESE 18:42:55 28° NE
IRIDIUM 114 4.2 18:38:37 10° N 18:43:53 85° E 18:49:07 10° S
Gblst 52 Del rocket 4.1 18:38:45 10° WSW 18:44:23 87° NNW 18:46:47 35° ENE
MINOTAUR 4 R/B 3.7 18:46:22 52° NNE 18:47:04 76° ESE 18:50:29 10° S
Cosmos 1892 Rocket 3.6 18:43:37 10° S 18:48:02 83° WNW 18:52:27 10° N
CSL-04 Rocket 4.0 18:47:08 36° E 18:48:16 40° ENE 18:53:17 10° N
COSMO-SKYMED 1 3.9 18:45:49 10° N 18:49:52 40° WNW 18:53:56 10° SW
Cosmos 1980 Rocket 4.3 18:46:09 10° W 18:50:27 21° NW 18:54:45 10° N
Spot 1 4.0 18:51:48 51° ESE 18:51:48 51° ESE 18:55:30 10° S
IRIDIUM 103 4.4 18:47:48 10° N 18:53:03 82° W 18:58:16 10° S
Cosmos 2315 Rocket 4.4 18:50:56 10° SSE 18:56:42 38° E 19:02:31 10° NNE
Resurs 01 Rocket 4.1 19:00:02 10° NNE 19:00:02 10° NNE 19:00:04 10° NNE
Cosmos 1943 Rocket 3.9 18:54:54 10° N 18:57:55 16° NNE 18:57:55 16° NNE
Genesis I 3.0 18:55:53 10° SSW 18:59:49 76° SE 18:59:51 76° ESE
Cosmos 2322 4.2 18:55:40 10° S 19:00:25 39° ESE 19:00:25 39° ESE
ATLAS CENTAUR R/B 3.7 18:57:39 10° WNW 19:01:04 20° NNW 19:03:35 13° N
Cosmos 1869 4.1 19:00:50 10° NNW 19:04:36 50° W 19:08:24 10° S
Cosmos 1633 4.4 19:14:20 10° SW 19:17:17 28° WNW 19:19:32 15° NNW
Okean O Rocket 2.2 19:17:01 10° S 19:21:19 55° W 19:25:42 10° NNW
Cosmos 1745 Rocket 4.1 19:15:38 10° NNW 19:21:53 75° W 19:28:02 10° S
Cosmos 1461 3.8 19:18:07 10° WSW 19:22:18 48° NW 19:23:10 42° N
Okean-O 4.2 19:25:58 24° N 19:25:58 24° N 19:27:48 10° N
SJ-6B 4.3 19:26:54 29° NNW 19:26:54 29° NNW 19:28:58 10° NNW
Lacrosse 5 rocket 2.7 19:28:39 10° WNW 19:31:19 32° WSW 19:31:19 32° WSW
Cosmos 1709 Rocket 3.9 19:34:15 10° N 19:40:25 82° W 19:43:12 35° S
CZ-4 R/B 3.2 19:37:00 10° SSW 19:40:39 30° W 19:44:16 10° NNW
Cosmos 44 Rocket 4.4 19:46:18 10° SW 19:49:10 37° SW 19:49:10 37° SW
Cosmos 2219 Rocket 2.4 19:49:04 10° SW 19:54:09 68° W 19:54:09 68° W
Cosmos 2360 Rocket 3.4 19:49:44 10° WSW 19:55:00 39° NW 19:57:41 25° N
Cosmos 2333 Rocket 3.0 19:57:53 10° SW 20:03:21 48° NW 20:04:26 42° NNW
Cosmos 2278 Rocket 3.1 19:57:49 10° NNW 20:01:33 42° NNW 20:01:33 42° NNW
Cosmos 2322 Rocket 4.1 20:03:04 10° W 20:07:41 25° NW 20:10:38 17° N
Lacrosse 5 3.4 20:11:39 10° W 20:15:03 33° NW 20:15:03 33° NW
COSMOS 2428 4.5 20:12:32 10° SSW 20:14:26 22° SW 20:14:26 22° SW
ATLAS 5 CENTAUR R/B 4.3 20:18:27 10° NNW 20:19:14 13° NNW 20:19:14 13° NNW
Cosmos 1943 Rocket 4.3 20:37:48 10° NNW 20:39:27 20° NNW 20:39:27 20° NNW
